Regional Weather Roundup
Issued by NWS

Home | Current Version | Previous Version | Graphics & Text | Print | Product List | Glossary On
Versions: 1 2 3 4 5 6 7 8 9 10 11 12 13 14 15 16 17 18 19 20 21 22 23 24 25 26 27 28 29 30 31 32 33 34 35 36 37 38 39 40 41 42 43 44 45 46 47 48 49 50
508
ASUS43 KMKX 240400
RWRWI

WISCONSIN REGIONAL WEATHER ROUNDUP
NATIONAL WEATHER SERVICE MILWAUKEE/SULLIVAN WI
1100 PM CDT SUN APR 23 2017

NOTE: "FAIR" INDICATES FEW OR NO CLOUDS BELOW 12,000 FEET WITH NO
SIGNIFICANT WEATHER AND/OR OBSTRUCTIONS TO VISIBILITY.

WIZ001-002-006>008-014>016-023>028-240500-
NORTHWEST WISCONSIN

CITY           SKY/WX    TMP DP  RH WIND       PRES   REMARKS
SUPERIOR ARPT  CLOUDY    35  29  79 E16       30.07F WCI  25
ASHLAND        CLOUDY    35  29  78 NE10      30.08F WCI  27
HAYWARD        PTCLDY    37  29  72 E12       30.01F WCI  29
SIREN          CLOUDY    37  30  74 E8G16     29.98F WCI  31
CUMBERLAND     MOCLDY    39  32  75 NE12      29.97F WCI  32
RICE LAKE      MOCLDY    45  36  71 NE6       29.98F
CHETEK         MOCLDY    45  37  74 NE9       29.97F
LADYSMITH      PTCLDY    44  36  73 NE10G16   30.01S
EAU CLAIRE     NOT AVBL
MENOMONIE      PTCLDY    54  42  64 N9        29.93R
NEW RICHMOND   CLOUDY    47  37  68 E12G21    29.93F
OSCEOLA        CLOUDY    46  37  69 E7G16     29.96S
$$

WIZ003>005-009-010-017-018-240500-
NORTH CENTRAL WISCONSIN

CITY           SKY/WX    TMP DP  RH WIND       PRES   REMARKS
MANITOWISH WTR MOCLDY    33  28  80 E9        30.06F WCI  25
ARBOR VITAE    PTCLDY    39  32  75 E5        30.06S
WOODRUFF       PTCLDY    39  32  75 E5        30.06S
RHINELANDER    PTCLDY    38  30  73 E9        30.07S WCI  31
EAGLE RIVER    CLEAR     35  26  69 E12       30.07F WCI  26
LAND O LAKES   CLEAR     32  26  77 NE5       30.10F WCI  27
PHILLIPS       PTCLDY    38  33  81 E9        30.02F WCI  32
TOMAHAWK       CLEAR     38  32  77 E5        30.05S WCI  35
MEDFORD        CLEAR     44  37  76 E13G22    30.01S
MERRILL        CLEAR     42  33  71 SE12G20   30.06R
$$

WIZ029-030-035-036-043>047-240500-
CENTRAL WISCONSIN

CITY           SKY/WX    TMP DP  RH WIND       PRES   REMARKS
WAUSAU         CLEAR     39  32  76 SE14G21   30.06R WCI  31
MOSINEE        CLEAR     37  32  81 E10G18    30.07R WCI  30
MARSHFIELD     CLEAR     42  36  79 E16       30.01S
STEVENS POINT  CLEAR     38  33  82 E13       30.07S WCI  30
WAUPACA        CLEAR     42  35  76 E8        30.09F
WAUTOMA        CLEAR     41  35  79 E10       30.08S
WISC RAPIDS    CLEAR     43  39  86 E14       30.05S
CAMP DOUGLAS   NOT AVBL
$$

WIZ011>013-019>022-031-037>040-048>050-240500-
NORTHEAST WISCONSIN

CITY           SKY/WX    TMP DP  RH WIND       PRES   REMARKS
ANTIGO         CLEAR     35  28  78 E10       30.09R WCI  27
SHAWANO        PTCLDY    40  31  70 E9        30.12S WCI  34
OCONTO         CLOUDY    38  27  64 NE9       30.13S WCI  32
STURGEON BAY   CLOUDY    38  25  59 NE12G18   30.13F WCI  30
GREEN BAY      PTCLDY    40  29  64 NE12      30.11F WCI  33
MANITOWOC      NOT AVBL
APPLETON       PTCLDY    37  27  65 E10       30.08F WCI  30
CLINTONVILLE   CLEAR     37  32  81 E7        30.11S WCI  32
OSHKOSH        CLEAR     40  30  67 E10       30.09S WCI  33
$$

WIZ032>034-041-042-053>061-240500-
SOUTHWEST WISCONSIN

CITY           SKY/WX    TMP DP  RH WIND       PRES   REMARKS
LA CROSSE      CLEAR     57  40  52 SE5       29.94S
SPARTA         MOCLDY    52  38  59 E5        29.97F
VIROQUA        CLEAR     56  32  39 S6        29.98S
BOSCOBEL       CLEAR     49  42  77 CALM      29.98S
PRAIRIE DU CHI CLEAR     57  34  41 CALM      29.97F
PLATTEVILLE    CLEAR     57  38  48 S9        30.00S
$$

WIZ056-057-062-063-064-067-068-240500-
SOUTH CENTRAL WISCONSIN

CITY           SKY/WX    TMP DP  RH WIND       PRES   REMARKS
REEDSBURG      CLEAR     49  41  74 E9        30.02R
BARABOO/DELLS  CLEAR     47  39  73 E8        30.03R
LONE ROCK      NOT AVBL
MINERAL POINT  CLEAR     57  34  41 S6        30.00S
MADISON        CLEAR     45  37  73 E8        30.04R
MIDDLETON      CLEAR     52  42  68 SE8       30.03S
WATERTOWN      CLOUDY    39  36  88 E5        30.06S
MONROE         CLOUDY    55  34  44 S7        30.01S
JANESVILLE     CLOUDY    48  37  66 E7        30.04R
$$

WIZ051-052-058>065-066-070>072-240500-
SOUTHEAST WISCONSIN

CITY           SKY/WX    TMP DP  RH WIND       PRES   REMARKS
MILWAUKEE      CLOUDY    40  34  79 N7        30.08F
WAUKESHA       CLOUDY    36  32  87 E7        30.08  WCI  30
MILWAUKEE/TIMM PTCLDY    37  32  81 NE8       30.09S WCI  31
RACINE         CLOUDY    39  34  82 N7        30.09F WCI  34
KENOSHA        PTCLDY    39  36  89 N3        30.07F
FOND DU LAC    CLEAR     39  30  70 NE9       30.09S WCI  33
SHEBOYGAN      CLOUDY    38  32  79 NE10      30.09F WCI  31
WEST BEND      PTCLDY    36  32  87 NE5       30.08F WCI  32
JUNEAU         CLEAR     39  33  79 E6        30.08S WCI  35
$$

LSZ147-162-240500-
LAKE SUPERIOR

STATION/POSITION TIME  TEMP    WIND        PRES    WAVE
                       AIR SEA DIR/SP/G            HT/PER
                 (UTC) (F)     (DEG/KT/KT) (MB)    (FT/S)
DEVILS ISLAND    0300   35      90/ 19/ 20 1021.1F
SAXON HARBOR     0340   38      70/  6/  9 1019.0F
$$

LMZ867-665-643>646-240500-
LAKE MICHIGAN

STATION/POSITION TIME  TEMP    WIND        PRES    WAVE
                       AIR SEA DIR/SP/G            HT/PER
                 (UTC) (F)     (DEG/KT/KT) (MB)    (FT/S)
CHAMBERS ISLAND  0340   37      20/ 17/ 19 1020.3F
N MID LAKE BUOY  0250   37 37   30/ 12/ 14 1022.6R   1/ 3
NORTHPORT PIER   0340   37      20/  7/ 10 1021.0F
SISTER BAY       0221   37      40/  8/  9   N/A
KEWAUNEE LAKESHO 0330   39      40/ 17/ 22 1019.3F
SHEBOYGAN LAKESH 0300   39      20/ 16/ 18 1019.2F
PORT WASHINGTON  0340   40      20/  5/ 10 1019.6F
MILWAUKEE LAKESH 0330   40      10/  7/  9   N/A
S MID LAKE BUOY  0250   40 41   30/  6/  6 1018.8F   2/ 5
KENOSHA   LAKESH 0300   41      20/ 12/ 14 1018.3
$$

TC  - TEMPERATURE IN CELSIUS
VSB - VISIBILITY IN STATUTE MILES
WCI - WIND CHILL INDEX
HX  - HEAT INDEX





USA.gov is the U.S. government's official web portal to all federal, state and local government web resources and services.